STARLINK-11520, 62834

Orbit data source: Space-Track

STARLINK-11520, 62834 is a payload satellite owned by SpaceX/Seattle (US) in LEO that was launched on Mon, 27 Jan 2025 UTC via an FALCON 9 launch vehicle from the Air Force Eastern Test Range (AFETR). Payload-class satellites include a variety of spacecraft equipped with specific instruments for various scientific and technological missions. These include communications satellites like Starlink; space stations such as the ISS; scientific satellites like the Hubble; Earth observation satellites from companies like Planet Labs, Umbra, and HawkEye 360; GPS; miniature CubeSats for education and research; and military/defense satellites.

Loading next visibility...
Identifier
62834, 2025-019F
Orbit
LEO
Country
Flag of USUS
Related business
Manufacturer
SpaceX/Seattle
Mission
Operational Commercial Communications
Bus & Motor
STARLINK V2MD, Unknown motor
Mass
960 kg wet, ~910 kg dry
Launch date (UTC)
2025-01-27 (10 months ago)
Launch vehicle
FALCON 9
Launch site
Air Force Eastern Test Range (AFETR)
Object type
Payload
Rocket body
Debris
Shape & HBR
Box + 2 Pan, 18.1 m
Radar Cross Section
36.964 m², Large (>1 m²)

Expand to show TLE details & history
Last TLE update: 9 hours ago

TLE from 9 hours ago
0 STARLINK-11520
1 62834U 25019F   25343.00002315 -.00087770  00000-0 -68622-3 0  9996
2 62834  43.0004 132.4182 0001679 270.4400 318.6980 15.70891766  6042
Epoch: 2025-12-09T00:00Z
TLE epoch observation values (Epoch: 2025-12-09T00:00:02.000Z)
Latitude
-31.2226°
Longitude
-85.31248°
Altitude
363.971 km
Speed
7.692 km/s
True Right ascension
23h 30m 44s
True Declination
-31° 03' 41"
Sunlit
Object was in daylight at epoch
Visualization orbit readout
Latitude
Unknown
Longitude
Unknown
Altitude
Unknown
Speed
Unknown
Apparent Right ascension
Unknown
Apparent Declination
Unknown
Sunlit
N/A
Visualization observer readout
Local Sidereal Time
07:02:22
Azimuth
Unknown
Elevation
Unknown
Doppler factor
Unknown
Orbital elements
Apogee altitude
359.46 km
Perigee altitude
357.198 km
Semi-major axis
6,736.466 km
Eccentricity
0.00017
Inclination
43.0004°
RAAN
132.4182°
Arg. of periapsis
270.44°
True anomaly
318.6853°
Mean anomaly
318.698°
Eccentric anomaly
318.69165°
Mean motion
3.9255 °/min
Orbital period
91.71 mins
BSTAR
-0.00068622
Loading maneuver chart data...
Computing Atmospheric mass density...
Loading historical data...
Loading historical data...
Loading historical data...
Loading historical data...
Loading historical data...
Loading historical data...
Loading historical data...

Documentation

Showing up to 5 results
|